Hourly Weather Maraksa 1-ya

Today, 2 October, Friday

Time Temperature Precipitation Wind Pressure Humidity
00:00 +4°C° 0 mm 2 mps 765 mmHg 91%
01:00 +4°C° 0 mm 2 mps 765 mmHg 92%
02:00 +4°C° 0 mm 2 mps 764 mmHg 92%
03:00 +4°C° 0 mm 2 mps 764 mmHg 92%
04:00 +5°C° 0.1 mm 2 mps 764 mmHg 93%
05:00 +5°C° 0.1 mm 2 mps 764 mmHg 94%
06:00 +4°C° 0.1 mm 3 mps 764 mmHg 95%
07:00 +4°C° 0.2 mm 3 mps 764 mmHg 95%
08:00 +5°C° 0.2 mm 2 mps 763 mmHg 95%
09:00 +6°C° 0.2 mm 2 mps 763 mmHg 96%
10:00 +6°C° 0.2 mm 2 mps 763 mmHg 95%
11:00 +6°C° 0.2 mm 2 mps 763 mmHg 95%
12:00 +6°C° 0.2 mm 2 mps 763 mmHg 95%
13:00 +7°C° 0.4 mm 2 mps 762 mmHg 96%
14:00 +7°C° 0.4 mm 2 mps 762 mmHg 96%
15:00 +7°C° 0.4 mm 2 mps 762 mmHg 97%
16:00 +7°C° 0 mm 2 mps 761 mmHg 97%
17:00 +8°C° 0 mm 3 mps 761 mmHg 97%
18:00 +8°C° 0 mm 3 mps 761 mmHg 97%
19:00 +8°C° 0 mm 3 mps 761 mmHg 97%
20:00 +8°C° 0 mm 3 mps 760 mmHg 97%
21:00 +8°C° 0 mm 3 mps 760 mmHg 97%
22:00 +8°C° 0 mm 3 mps 759 mmHg 96%
23:00 +8°C° 0 mm 3 mps 759 mmHg 96%

Tomorrow, 3 October, Saturday

Time Temperature Precipitation Wind Pressure Humidity
00:00 +8°C° 0 mm 3 mps 759 mmHg 96%
01:00 +8°C° 0 mm 3 mps 758 mmHg 96%
02:00 +7°C° 0 mm 3 mps 758 mmHg 97%
03:00 +7°C° 0 mm 3 mps 757 mmHg 97%
04:00 +7°C° 0 mm 3 mps 757 mmHg 97%
05:00 +7°C° 0 mm 3 mps 757 mmHg 97%
06:00 +7°C° 0 mm 3 mps 757 mmHg 97%
07:00 +7°C° 0 mm 3 mps 756 mmHg 96%
08:00 +7°C° 0 mm 4 mps 756 mmHg 95%
09:00 +7°C° 0 mm 4 mps 755 mmHg 93%
10:00 +8°C° 0 mm 4 mps 755 mmHg 91%
11:00 +8°C° 0 mm 4 mps 755 mmHg 89%
12:00 +10°C° 0 mm 4 mps 755 mmHg 86%
13:00 +11°C° 0 mm 4 mps 754 mmHg 84%
14:00 +11°C° 0 mm 4 mps 754 mmHg 82%
15:00 +12°C° 0 mm 4 mps 754 mmHg 80%
16:00 +12°C° 0 mm 4 mps 754 mmHg 82%
17:00 +11°C° 0 mm 4 mps 753 mmHg 84%
18:00 +11°C° 0 mm 3 mps 753 mmHg 85%
19:00 +11°C° 0.1 mm 4 mps 753 mmHg 87%
20:00 +10°C° 0.1 mm 4 mps 753 mmHg 88%
21:00 +10°C° 0.1 mm 4 mps 752 mmHg 89%
22:00 +10°C° 0.3 mm 4 mps 752 mmHg 90%
23:00 +10°C° 0.3 mm 4 mps 752 mmHg 90%

Day after tomorrow, 4 October, Sunday

Time Temperature Precipitation Wind Pressure Humidity
00:00 +10°C° 0.3 mm 4 mps 751 mmHg 91%
01:00 +9°C° 0.2 mm 3 mps 752 mmHg 92%
02:00 +9°C° 0.2 mm 3 mps 752 mmHg 93%
03:00 +9°C° 0.2 mm 3 mps 752 mmHg 95%
04:00 +8°C° 0.3 mm 3 mps 752 mmHg 93%
05:00 +7°C° 0.3 mm 3 mps 752 mmHg 92%
06:00 +5°C° 0.3 mm 3 mps 752 mmHg 90%
07:00 +5°C° 0.1 mm 3 mps 752 mmHg 90%
08:00 +4°C° 0.1 mm 3 mps 753 mmHg 89%
09:00 +3°C° 0.1 mm 3 mps 753 mmHg 88%
10:00 +3°C° 0 mm 3 mps 753 mmHg 85%
11:00 +3°C° 0 mm 3 mps 754 mmHg 81%
12:00 +3°C° 0 mm 4 mps 754 mmHg 78%
13:00 +3°C° 0 mm 3 mps 754 mmHg 76%
14:00 +3°C° 0 mm 3 mps 755 mmHg 74%
15:00 +3°C° 0 mm 3 mps 755 mmHg 71%
16:00 +2°C° 0 mm 3 mps 755 mmHg 73%
17:00 +1°C° 0 mm 3 mps 755 mmHg 75%
18:00 +1°C° 0 mm 3 mps 756 mmHg 77%
19:00 0°C° 0 mm 3 mps 756 mmHg 78%
20:00 -1°C° 0 mm 3 mps 756 mmHg 79%
21:00 -1°C° 0 mm 3 mps 756 mmHg 79%
22:00 -2°C° 0 mm 2 mps 756 mmHg 81%
23:00 -2°C° 0 mm 2 mps 756 mmHg 82%

5 October, Monday

Time Temperature Precipitation Wind Pressure Humidity
00:00 -3°C° 0 mm 2 mps 756 mmHg 83%
01:00 -3°C° 0 mm 2 mps 756 mmHg 83%
02:00 -3°C° 0 mm 2 mps 756 mmHg 84%
03:00 -3°C° 0 mm 2 mps 756 mmHg 84%
04:00 -3°C° 0 mm 2 mps 757 mmHg 85%
05:00 -4°C° 0 mm 2 mps 757 mmHg 87%
06:00 -4°C° 0 mm 2 mps 757 mmHg 89%
07:00 -3°C° 0 mm 2 mps 757 mmHg 85%
08:00 -2°C° 0 mm 2 mps 757 mmHg 81%
09:00 -1°C° 0 mm 2 mps 757 mmHg 77%
10:00 -1°C° 0 mm 3 mps 757 mmHg 73%
11:00 0°C° 0 mm 3 mps 757 mmHg 70%
12:00 0°C° 0 mm 3 mps 757 mmHg 66%
13:00 0°C° 0 mm 3 mps 757 mmHg 65%
14:00 0°C° 0 mm 3 mps 757 mmHg 64%
15:00 0°C° 0 mm 3 mps 757 mmHg 63%
16:00 +1°C° 0 mm 2 mps 757 mmHg 64%
17:00 +1°C° 0 mm 2 mps 757 mmHg 65%
18:00 +1°C° 0 mm 2 mps 757 mmHg 67%
19:00 -1°C° 0 mm 2 mps 757 mmHg 72%
20:00 -2°C° 0 mm 2 mps 757 mmHg 77%
21:00 -3°C° 0 mm 2 mps 757 mmHg 82%
22:00 -3°C° 0 mm 2 mps 757 mmHg 85%
23:00 -3°C° 0 mm 2 mps 757 mmHg 88%

6 October, Tuesday

Time Temperature Precipitation Wind Pressure Humidity
00:00 -3°C° 0 mm 2 mps 756 mmHg 91%
01:00 -4°C° 0 mm 2 mps 756 mmHg 92%
02:00 -4°C° 0 mm 2 mps 756 mmHg 93%
03:00 -4°C° 0 mm 2 mps 756 mmHg 94%
04:00 -4°C° 0 mm 2 mps 756 mmHg 93%
05:00 -5°C° 0 mm 3 mps 756 mmHg 92%
06:00 -4°C° 0 mm 3 mps 756 mmHg 91%
07:00 -4°C° 0 mm 3 mps 756 mmHg 87%
08:00 -3°C° 0 mm 4 mps 756 mmHg 83%
09:00 -2°C° 0 mm 4 mps 756 mmHg 79%
10:00 -1°C° 0 mm 4 mps 755 mmHg 77%
11:00 -1°C° 0 mm 5 mps 755 mmHg 76%
12:00 0°C° 0 mm 5 mps 755 mmHg 74%
13:00 0°C° 0 mm 5 mps 755 mmHg 77%
14:00 0°C° 0 mm 5 mps 755 mmHg 79%
15:00 0°C° 0 mm 5 mps 755 mmHg 81%
16:00 0°C° 0 mm 5 mps 755 mmHg 79%
17:00 0°C° 0 mm 5 mps 754 mmHg 77%
18:00 0°C° 0 mm 4 mps 754 mmHg 76%
19:00 0°C° 0 mm 4 mps 754 mmHg 78%
20:00 -1°C° 0 mm 5 mps 754 mmHg 81%
21:00 -1°C° 0 mm 5 mps 753 mmHg 84%
22:00 -1°C° 0 mm 5 mps 753 mmHg 85%
23:00 -1°C° 0 mm 5 mps 752 mmHg 86%

7 October, Wednesday

Time Temperature Precipitation Wind Pressure Humidity
00:00 -1°C° 0 mm 5 mps 752 mmHg 86%
01:00 -1°C° 0.2 mm 5 mps 751 mmHg 90%
02:00 -2°C° 0.2 mm 6 mps 751 mmHg 93%
03:00 -2°C° 0.2 mm 6 mps 750 mmHg 96%
04:00 -2°C° 0.2 mm 6 mps 750 mmHg 96%
05:00 -2°C° 0.2 mm 6 mps 750 mmHg 96%
06:00 -1°C° 0.2 mm 6 mps 749 mmHg 96%
07:00 -1°C° 0.4 mm 6 mps 749 mmHg 96%
08:00 +1°C° 0.4 mm 5 mps 749 mmHg 95%
09:00 +1°C° 0.4 mm 5 mps 749 mmHg 95%
10:00 0°C° 0.2 mm 5 mps 749 mmHg 90%
11:00 0°C° 0.2 mm 5 mps 750 mmHg 85%
12:00 -1°C° 0.2 mm 5 mps 750 mmHg 80%
13:00 -1°C° 0 mm 5 mps 750 mmHg 79%
14:00 -1°C° 0 mm 5 mps 751 mmHg 77%
15:00 -2°C° 0 mm 4 mps 751 mmHg 75%
16:00 -2°C° 0 mm 4 mps 752 mmHg 79%
17:00 -2°C° 0 mm 3 mps 752 mmHg 83%
18:00 -4°C° 0 mm 3 mps 753 mmHg 87%
19:00 -4°C° 0 mm 3 mps 753 mmHg 88%
20:00 -4°C° 0 mm 3 mps 753 mmHg 89%
21:00 -5°C° 0 mm 3 mps 754 mmHg 91%
22:00 -5°C° 0 mm 3 mps 754 mmHg 91%
23:00 -5°C° 0 mm 3 mps 754 mmHg 92%
Show more